Date,TemperatureHighF,TemperatureAvgF,TemperatureLowF,DewpointHighF,DewpointAvgF,DewpointLowF,HumidityHigh,HumidityAvg,HumidityLow,PressureMaxIn,PressureMinIn,WindSpeedMaxMPH,WindSpeedAvgMPH,GustSpeedMaxMPH,PrecipitationSumIn
2013-3-1,39,37,33,28,26,21,72,63,58,29.92,29.77,5,2,5,0.00
2013-3-2,36,33,31,27,22,18,76,63,54,29.91,29.82,6,1,6,0.00
2013-3-3,39,30,23,21,17,13,77,58,45,29.98,29.82,5,2,5,0.00
2013-3-4,46,32,23,19,14,11,65,48,28,30.05,29.96,6,2,8,0.00
2013-3-5,52,39,26,32,25,15,92,59,36,30.07,29.73,10,2,13,0.02
2013-3-6,34,33,32,32,30,28,93,89,85,29.72,29.65,0,0,0,0.00
2013-3-7,38,37,37,27,27,26,67,65,62,30.22,30.21,4,2,7,0.00
2013-3-8,42,37,29,28,26,22,76,63,54,30.33,30.19,7,2,12,0.00
2013-3-9,29,26,23,22,20,18,84,80,75,30.34,30.31,2,0,3,0.00
2013-3-10,63,54,48,35,31,26,54,43,32,30.31,30.19,8,2,8,0.00
2013-3-11,60,51,42,48,35,24,76,54,34,30.21,29.89,10,2,15,0.00
2013-3-12,59,52,37,52,43,27,92,72,46,30.02,29.75,9,2,13,0.79
2013-3-13,46,37,29,32,24,16,79,60,36,30.11,29.92,10,3,13,0.00
2013-3-14,38,32,30,19,17,15,59,53,42,30.13,30.10,10,2,10,0.00
2013-3-15,58,42,27,37,25,14,60,51,43,30.13,29.81,8,2,9,0.00
2013-3-16,60,47,38,54,40,28,87,76,52,29.90,29.64,9,2,11,0.18
2013-3-17,41,36,32,37,33,30,92,88,82,30.24,29.90,7,2,8,0.17
2013-3-18,38,33,32,33,30,29,92,88,76,30.26,29.89,5,1,5,0.22
2013-3-19,56,43,33,39,27,7,92,60,20,29.98,29.76,15,4,15,0.33
2013-3-20,52,40,28,21,15,10,57,38,23,30.03,29.77,8,3,9,0.00
2013-3-21,38,30,23,27,15,9,76,52,37,29.94,29.79,10,3,10,0.00
2013-3-22,48,34,21,21,15,10,66,48,31,30.02,29.88,9,2,9,0.00
2013-3-23,55,38,21,26,19,13,75,50,24,30.06,29.91,8,1,8,0.00
2013-3-24,43,34,31,28,23,16,83,65,43,29.99,29.63,12,1,12,0.00
2013-3-25,38,34,30,34,29,26,88,82,76,29.73,29.53,2,0,2,0.40
2013-3-26,46,38,30,34,28,25,83,69,50,30.06,29.73,8,1,8,0.20
2013-3-27,44,37,28,29,25,22,82,64,47,30.18,30.06,10,2,12,0.00
2013-3-28,46,38,28,28,25,22,76,61,47,30.26,30.14,8,2,9,0.00
2013-3-29,55,43,31,34,27,21,81,56,33,30.29,30.16,6,1,7,0.00
2013-3-30,62,44,28,34,27,21,76,53,32,30.25,30.09,6,1,6,0.00
2013-3-31,58,48,40,50,39,27,86,73,47,30.09,29.77,5,1,6,0.02